ETIHAD-SAT

导读

ETIHAD-SAT(阿提哈德卫星)是阿联酋与韩国合作开发的合成孔径雷达遥感卫星,于2025年3月15日在美国加州范登堡基地由猎鹰9号火箭发射升空,重量220kg,运行于太阳同步轨道。 它搭载先进SAR技术,可全天候提供高分辨率成像,具备点、扫描、条带三种成像模式,服务环境监测、灾害管理、智能农业、海上航行等领域,是阿联酋首颗SAR卫星,标志其太空技术取得重要突破,助力提升本国地球观测能力,推动航天技术本地化发展。

基本信息
目录编号:
63226
目录名称:
ETIHAD-SAT
国际标识:
2025-052S
轨道中心:
EARTH
卫星名称:
ETIHAD-SAT
卫星全名:
ETIHAD-SAT
卫星状态:
在轨 (已飞行539 天)
发射日期:
2025-03-15 UTC
国别 :
(AE)
星等 :
--
轨道信息
数据来源 国际轨道数据
星历时间: 2026-09-05T11:41:23+0800
4小时前
查看轨道信息
半长轴: 6876.099km
偏心率: 0.0004111
轨道倾角: 97.384°
近地点辐角 203.630°
升交点赤经 139.348°
平近点角 156.475°
近地点: 495.135km
远地点: 500.789km
周期: 94.574分钟
每日圈数: 15.226132
详细信息
使用方式:
暂无
2D轨道图
3D轨道图
轨道高度分析图
轨道倾角分析图
轨道综合分析图
查看轨道综合分析图